Location: Kott?ru
(16.6209°N, 80.6208°E)
Time: 03:43:06
(UTC+00:00)

Cosmos 1763 Rocket - Visible Passes

Search period start: 17 January 2021 00:00
Search period end: 27 January 2021 00:00
Orbit: 732 x 780 km, 74.0° (Epoch: 16 January)

Date Brightness Start Highest point End Pass type
(mag) Time Alt. Az. Time Alt. Az. Time Alt. Az.
17 Jan 4.3 00:31:42 10° SW 00:35:58 27° WNW 00:40:18 10° NNW visible
17 Jan 3.4 23:50:25 10° SSW 23:55:24 61° WNW 00:00:29 10° N visible
18 Jan 3.9 23:09:57 10° S 23:14:56 60° ESE 23:19:59 10° NNE visible
19 Jan 5.3 22:30:21 10° SSE 22:34:33 26° E 22:38:47 10° NE visible
20 Jan 4.7 00:12:36 10° WSW 00:16:10 19° WNW 00:19:45 10° NNW visible
20 Jan 5.7 23:40:10 11° N 23:40:10 11° N 23:40:24 10° N visible
